This is the latest recevied weather packets stored in our database for station/object W8LMG. If no packets are shown the sender has not sent any weather packets the latest 10 day(s).
| Time | Temp. | Humidity | Pressure | Rain* | Wind** | Luminosity | Snow |
|---|---|---|---|---|---|---|---|
| 1778191900 | 15.56° C | 43% | 1011.6 hPa | 0 mm | - | 222 W/m² | - |
| 1778191597 | 15.56° C | 46% | 1011.7 hPa | 0 mm | - | 236 W/m² | - |
| 1778191296 | 15.56° C | 49% | 1011.4 hPa | 0 mm | - | 275 W/m² | - |
| 1778190991 | 16.11° C | 52% | 1011.2 hPa | 0 mm | - | 295 W/m² | - |
| 1778190689 | 15.56° C | 48% | 1011.2 hPa | 0 mm | - | 319 W/m² | - |
| 1778190386 | 15.56° C | 48% | 1011.2 hPa | 0 mm | - | 334 W/m² | - |
| 1778190082 | 16.67° C | 44% | 1011 hPa | 0 mm | - | 356 W/m² | - |
| 1778189778 | 17.22° C | 47% | 1010.8 hPa | 0 mm | - | 387 W/m² | - |
| 1778189476 | 16.67° C | 46% | 1010.9 hPa | 0 mm | - | 403 W/m² | - |
| 1778189172 | 16.11° C | 47% | 1010.8 hPa | 0 mm | - | 390 W/m² | - |
| 1778188868 | 15.56° C | 47% | 1010.9 hPa | 0 mm | - | 384 W/m² | - |
| 1778188565 | 15.56° C | 49% | 1010.9 hPa | 0 mm | - | 412 W/m² | - |
| 1778188261 | 14.44° C | 51% | 1010.8 hPa | 0 mm | - | 435 W/m² | - |
| 1778187959 | 14.44° C | 49% | 1010.8 hPa | 0 mm | - | 114 W/m² | - |
| 1778187655 | 14.44° C | 53% | 1010.8 hPa | 0 mm | - | 151 W/m² | - |
| 1778187352 | 15° C | 49% | 1010.7 hPa | 0 mm | - | 158 W/m² | - |
| 1778187048 | 15° C | 50% | 1010.6 hPa | 0 mm | - | 215 W/m² | - |
| 1778186744 | 15° C | 50% | 1010.7 hPa | 0 mm | - | 162 W/m² | - |
| 1778186442 | 16.11° C | 47% | 1010.7 hPa | 0 mm | - | 156 W/m² | - |
| 1778186140 | 15.56° C | 48% | 1010.7 hPa | 0 mm | - | 240 W/m² | - |
| 1778185837 | 15.56° C | 49% | 1010.6 hPa | 0 mm | - | 591 W/m² | - |
| 1778185533 | 15.56° C | 47% | 1010.8 hPa | 0 mm | - | 443 W/m² | - |
| 1778185229 | 16.11° C | 47% | 1010.5 hPa | 0 mm | - | 170 W/m² | - |
| 1778184925 | 16.67° C | 47% | 1010.4 hPa | 0 mm | - | 580 W/m² | - |
| 1778184621 | 16.11° C | 49% | 1010.4 hPa | 0 mm | - | 565 W/m² | - |
* Rain latest hour (hover to see other rain measurements)
** Current wind speed in m/s (hover to see current wind gust speed)